If you wish to contribute or participate in the discussions about articles you are invited to join SKYbrary as a registered user

 Actions

Usiminas Airport

From SKYbrary Wiki

SBIP
Airport
ICAO: SBIP – IATA: IPN
Summary
Name Usiminas Airport
Region South America and Caribbean
Territory Brazil BR.gif
Location Ipatinga, Minas Gerais
Serving Ipatinga
Elevation 238.963 m
784 ft238.963 m
Coordinates 19° 28' 14.02" S, 42° 29' 17.02" W
Runways
Designator Length Width Surface ROPS
5/23 2004 m6,574.803 ft
45 m147.638 ft
ASP /


METAR
Observation SBIP 222000Z 02009KT 9999 SCT020 BKN050 28/24 Q1007
Station USIMINAS/PARAISO
Date/Time 22 January 2020 20:00:00
Wind direction 20°
Wind speed 09 kts
Lowest cloud amount scattered clouds
Temperature 28°C
Dew point 24°C
Humidity 78%
QNH 1007 hPa
Weather condition n/a

Usiminas Airport, also known as Steel Valley Regional Airport, is the airport serving Ipatinga, Brazil, located in the adjoining municipality of Santana do Paraíso.

Climatology

Tropical savanna climate (Köppen climate classification Aw)

Maps

Terrain

Loading map...

Airport Layout

Loading map...


Accidents & Serious Incidents at or in vicinity of SBIP

None on SKYbrary